Regional Weather Roundup
Issued by NWS Charleston, SC

Current Version | Previous Version | Text Only | Print | Product List | Glossary Off
Versions: 1 2 3 4 5 6 7 8 9 10 11 12 13 14 15 16 17 18 19 20 21 22 23 24 25 26 27 28 29 30 31 32 33 34 35 36 37 38 39 40 41 42 43 44 45 46 47 48 49 50

000
ASUS42 KCHS 290928
RWRCHS

REGIONAL WEATHER ROUNDUP
NATIONAL WEATHER SERVICE CHARLESTON SC
500 AM EDT FRI JUL 29 2016

NOTE: "FAIR" INDICATES FEW OR NO CLOUDS BELOW 12,000 FEET WITH NO
SIGNIFICANT WEATHER AND/OR OBSTRUCTIONS TO VISIBILITY.

NOT ALL STATIONS ARE QUALITY CONTROLLED. USE DATA WITH CAUTION...
ESPECIALLY DEWPOINT OBSERVATIONS.

SCZ027-030-031-034>040-042>050-291000-
...SOUTHEAST SOUTH CAROLINA...

CITY           SKY/WX    TMP DP  RH WIND       PRES   REMARKS
N CHARLESTON   CLEAR     82  74  76 W8        29.94S
WATERFRONT PRK   N/A     84  77  79 W5        29.92S HX  94
MOUNT PLEASANT FAIR      84  75  74 W5        29.95S HX  92
JOHNS ISLAND   FAIR      82  75  78 W6        29.95S
PINOPOLIS        N/A     82  77  83 SW8       29.87S HX  91
MONCKS CORNER  FAIR      75  72  88 SW5       29.95R
SUMMERVILLE    NOT AVBL
BEAUFORT MCAS  CLEAR     80  71  74 SW7       29.97R
BEAUFORT ARPT  FAIR      82  72  69 W8        29.96S
HILTON HEAD IS CLEAR     82  73  74 W6        29.98R
WALTERBORO     SUNNY     79  70  73 W5        29.96F
ALLENDALE      FAIR      77  68  73 CALM      29.96S

...SOUTHERN MIDLANDS AND PEE DEE...

CITY           SKY/WX    TMP DP  RH WIND       PRES   REMARKS
GEORGETOWN     FAIR      79  77  94 SW7       29.95S
KINGSTREE      FAIR      75  72  88 CALM      29.93S
ORANGEBURG     CLEAR     75  69  81 SW5       29.96R
BARNWELL       NOT AVBL
AIKEN          FAIR      75  68  78 SW5       30.01R
MANNING        FAIR      77  70  78 SW5       29.94S
COLUMBIA       CLEAR     79  69  71 SW5       29.94R
SUMTER         CLEAR     80  68  67 SW9       29.92R
FLORENCE       CLEAR     78  69  73 SW6       29.92F
MYRTLE BEACH   CLEAR     81  72  74 W8        29.95S
N MYRTLE BEACH CLEAR     82  77  84 W8        29.92S HX  90

$$

GAZ063-065-086>088-099>101-113>116-118-119-134>141-150-291000-
...SOUTHEAST GEORGIA...

CITY           SKY/WX    TMP DP  RH WIND       PRES   REMARKS
SAVANNAH ARPT  CLEAR     79  70  74 W7        29.98S
HUNTER AAF     CLEAR     79  74  84 W7        29.96R
FORT STEWART   CLEAR     78  71  79 SW5       29.97R
STATESBORO     CLEAR     80  72  76 W6        29.99R
SYLVANIA       NOT AVBL
CLAXTON        FAIR      76  73  88 SW3       30.00R

...CSRA...CENTRAL AND FAR SOUTHEAST GEORGIA...

CITY           SKY/WX    TMP DP  RH WIND       PRES   REMARKS
THOMSON        NOT AVBL
AUGUSTA-BUSH   CLEAR     78  69  73 W6        29.96R
AUGUSTA-DANIEL CLEAR     81  70  69 W3        29.98R
SWAINSBORO     FAIR      77  70  78 CALM      30.01S
VIDALIA        CLEAR     79  70  73 W3        30.01S
EASTMAN        FAIR      79  64  61 W3        30.04R
HAZLEHURST     FAIR      79  76  89 CALM      30.01R
ALMA           CLEAR     77  73  87 S3        30.01R
WAYCROSS       PTCLDY    81  77  89 W5        30.02R
JESUP          FAIR      77  77 100 CALM      30.01R
BAXLEY         FAIR      77  77 100 CALM      30.01R
BRUNSWICK      CLEAR     79  77  94 W7        30.01R
SAINT SIMONS   CLEAR     81  75  82 W5        29.99S

$$

SCZ027-028-034-036>038-045-046-048>050-GAZ119-141-291000-
...LAKE AND SUPPLEMENTAL COASTAL OBSERVATIONS...

STATION/POSITION TIME  TEMP    WIND        PRES    WAVE   SWELL
                       AIR SEA DIR/SP/G            HT/PER HT/PER/DIR
                 (UTC) (F)     (DEG/KT/KT) (MB)    (FT/S) (FT/S/D)
WINYAH BAY       0845   82     250/  6     1013.0S
LAKE MURRAY      0800   82     250/ 10/ 13 1013.2S
ACE BASIN NERRS  0800   82     240/  1     1015.0R
FORT PULASKI     0900   82 87  250/  8/ 11 1015.5R
SAPELO ISLAND    0900   81     260/  8     1015.0S

$$

ANZ835-935-AMZ111-154-330-350-352-354-370-450-454-472-291000-
...C-MAN AND BUOY OBSERVATIONS...

STATION/POSITION TIME  TEMP    WIND        PRES    WAVE   SWELL
                       AIR SEA DIR/SP/G            HT/PER HT/PER/DIR
                 (UTC) (F)     (DEG/KT/KT) (MB)    (FT/S) (FT/S/D)
BUOY 41004       0850   85 86  240/ 19/ 23 1013.3R   5/ 5   2/180/ 8
BUOY 41008       0850   85 86  260/ 17/ 21 1014.6S   3/ 4
FOLLY BEACH CMAN 0900   84     240/  8/ 12 1014.2R
CAPERS NEARSHORE 0908   85 84  260/ 14/ 21 1013.6S
FRIPP NEARSHORE  0908   85 87  270/ 16/ 21 1014.1R


STATION/POSITION TIME  TEMP    WIND        PRES    WAVE   SWELL
                       AIR SEA DIR/SP/G            HT/PER HT/PER/DIR
                 (UTC) (F)     (DEG/KT/KT) (MB)    (FT/S) (FT/S/D)
5E ST. MARYS GA  0901      85                N/A     2/ 4
FRYING PAN BUOY  0900   85 85  240/ 19/ 25 1013.0S
BUOY 41025       0850   85 85  240/ 19/ 21 1011.2F   5/ 6   2/260/14
CAPE LOOKOUT NC  0900   83     240/ 13/ 17 1011.8F
BUOY 41002       0850   83 84  250/  8/ 10 1015.2F   3/ 6   3/260/ 6
BUOY 41010       0820   85 87  230/ 12/ 14 1016.4F
ST AUGUSTINE FL  0900   78 84  250/  6/  6 1017.2F


$$




USA.gov is the U.S. government's official web portal to all federal, state and local government web resources and services.